This is the latest recevied weather packets stored in our database for station/object SV2BBO-15. If no packets are shown the sender has not sent any weather packets the latest 10 day(s).
| Time | Temp. | Humidity | Pressure | Rain* | Wind** | Luminosity | Snow |
|---|---|---|---|---|---|---|---|
| 1787401508 | 40° C | 26% | 1011.9 hPa | - | - | - | - |
| 1787400608 | 39.44° C | 25% | 1012 hPa | - | - | - | - |
| 1787399707 | 39.44° C | 27% | 1012.2 hPa | - | - | - | - |
| 1787398807 | 38.33° C | 28% | 1012.4 hPa | - | - | - | - |
| 1787397906 | 37.22° C | 28% | 1012.5 hPa | - | - | - | - |
| 1787397006 | 37.78° C | 28% | 1012.6 hPa | - | - | - | - |
| 1787396106 | 38.33° C | 27% | 1012.7 hPa | - | - | - | - |
| 1787395206 | 37.78° C | 31% | 1012.8 hPa | - | - | - | - |
| 1787394306 | 37.22° C | 29% | 1012.8 hPa | - | - | - | - |
| 1787393406 | 36.11° C | 32% | 1012.9 hPa | - | - | - | - |
| 1787392506 | 35.56° C | 33% | 1013 hPa | - | - | - | - |
| 1787391606 | 35.56° C | 33% | 1012.9 hPa | - | - | - | - |
| 1787390705 | 35° C | 34% | 1013.2 hPa | - | - | - | - |
| 1787389805 | 34.44° C | 34% | 1013.3 hPa | - | - | - | - |
| 1787388905 | 33.89° C | 34% | 1013.3 hPa | - | - | - | - |
| 1787388005 | 34.44° C | 35% | 1013.4 hPa | - | - | - | - |
| 1787387105 | 34.44° C | 36% | 1013.5 hPa | - | - | - | - |
| 1787386204 | 34.44° C | 37% | 1013.6 hPa | - | - | - | - |
| 1787385304 | 34.44° C | 36% | 1013.6 hPa | - | - | - | - |
| 1787384404 | 34.44° C | 34% | 1013.6 hPa | - | - | - | - |
| 1787383504 | 34.44° C | 36% | 1013.6 hPa | - | - | - | - |
| 1787382604 | 34.44° C | 37% | 1013.5 hPa | - | - | - | - |
| 1787381704 | 35° C | 35% | 1013.5 hPa | - | - | - | - |
| 1787380812 | 33.89° C | 38% | 1013.6 hPa | - | - | - | - |
| 1787379911 | 32.78° C | 41% | 1013.4 hPa | - | - | - | - |
* Rain since midnight (hover to see other rain measurements)
** Current wind speed in m/s (hover to see current wind gust speed)